DLH1PK LOWW-LOWI

Flight info

Callsign DLH1PK
Flight time 0h 46m
Altitude 30000
Route SOVIL DCT SITNI DCT BAGSI DCT NANIT NANIT2A
Aircraft A320/M-SDE3FGHIRWY/LB1

Departure

Time 2026-05-06 19:40
Airport Vienna International Airport (LOWW)

Arrival

Time 2026-05-06 20:26
Airport Innsbruck Airport (LOWI)
Time Latitude Longitude Altitude Speed Heading
2026-05-06 18:39 48.11825 16.56984 623 ft 0 kts 206°
2026-05-06 18:39 48.11827 16.56985 623 ft 0 kts 206°
2026-05-06 19:03 48.11845 16.56999 628 ft 4 kts 203°
2026-05-06 19:03 48.11871 16.57012 627 ft 4 kts 190°
2026-05-06 19:03 48.11894 16.57012 627 ft 4 kts 141°
2026-05-06 19:03 48.11900 16.57003 627 ft 0 kts 116°
2026-05-06 19:05 48.11900 16.57005 627 ft 2 kts 116°
2026-05-06 19:05 48.11871 16.57092 612 ft 13 kts 116°
2026-05-06 19:06 48.11854 16.57205 610 ft 14 kts 99°
2026-05-06 19:06 48.11805 16.57340 619 ft 15 kts 142°
2026-05-06 19:06 48.11703 16.57390 610 ft 16 kts 165°
2026-05-06 19:06 48.11596 16.57434 613 ft 16 kts 164°
2026-05-06 19:07 48.11485 16.57453 610 ft 16 kts 196°
2026-05-06 19:07 48.11384 16.57382 624 ft 17 kts 206°
2026-05-06 19:07 48.11280 16.57308 620 ft 13 kts 205°
2026-05-06 19:07 48.11232 16.57204 624 ft 14 kts 287°
2026-05-06 19:08 48.11282 16.57052 618 ft 20 kts 296°
2026-05-06 19:08 48.11339 16.56876 615 ft 18 kts 296°
2026-05-06 19:08 48.11392 16.56714 627 ft 17 kts 296°
2026-05-06 19:08 48.11440 16.56565 619 ft 16 kts 296°
2026-05-06 19:09 48.11499 16.56390 614 ft 19 kts 297°
2026-05-06 19:09 48.11552 16.56226 622 ft 17 kts 295°
2026-05-06 19:09 48.11600 16.56076 615 ft 15 kts 296°
2026-05-06 19:09 48.11645 16.55939 617 ft 14 kts 296°
2026-05-06 19:10 48.11689 16.55805 619 ft 15 kts 296°
2026-05-06 19:10 48.11738 16.55653 615 ft 19 kts 295°
2026-05-06 19:10 48.11794 16.55481 617 ft 18 kts 296°
2026-05-06 19:10 48.11851 16.55306 614 ft 24 kts 296°
2026-05-06 19:11 48.11924 16.55076 619 ft 25 kts 296°
2026-05-06 19:11 48.12000 16.54846 614 ft 24 kts 296°
2026-05-06 19:11 48.12070 16.54629 614 ft 22 kts 296°
2026-05-06 19:11 48.12135 16.54429 622 ft 20 kts 296°
2026-05-06 19:12 48.12195 16.54246 622 ft 19 kts 296°
2026-05-06 19:12 48.12250 16.54079 621 ft 17 kts 296°
2026-05-06 19:12 48.12300 16.53925 622 ft 15 kts 296°
2026-05-06 19:12 48.12335 16.53819 610 ft 2 kts 296°
2026-05-06 19:13 48.12335 16.53818 610 ft 0 kts 296°
2026-05-06 19:14 48.12342 16.53799 624 ft 8 kts 296°
2026-05-06 19:14 48.12366 16.53724 618 ft 8 kts 296°
2026-05-06 19:15 48.12387 16.53658 620 ft 6 kts 295°
2026-05-06 19:15 48.12405 16.53603 619 ft 5 kts 295°
2026-05-06 19:15 48.12410 16.53588 623 ft 0 kts 295°
2026-05-06 19:23 48.12418 16.53563 610 ft 3 kts 295°
2026-05-06 19:23 48.12424 16.53544 621 ft 1 kts 295°
2026-05-06 19:23 48.12427 16.53534 617 ft 1 kts 294°
2026-05-06 19:24 48.12427 16.53533 617 ft 0 kts 294°
2026-05-06 19:26 48.12427 16.53532 616 ft 2 kts 293°
2026-05-06 19:26 48.12424 16.53473 610 ft 6 kts 244°
2026-05-06 19:26 48.12390 16.53434 616 ft 5 kts 207°
2026-05-06 19:27 48.12388 16.53433 616 ft 0 kts 207°
2026-05-06 19:36 48.12387 16.53432 616 ft 1 kts 207°
2026-05-06 19:36 48.12342 16.53399 610 ft 11 kts 205°
2026-05-06 19:36 48.12273 16.53379 618 ft 9 kts 147°
2026-05-06 19:36 48.12255 16.53420 614 ft 0 kts 115°
2026-05-06 19:39 48.12255 16.53421 610 ft 0 kts 115°
2026-05-06 19:39 48.12224 16.53516 612 ft 38 kts 117°
2026-05-06 19:39 48.11997 16.54205 614 ft 106 kts 116°
2026-05-06 19:39 48.11590 16.55428 672 ft 150 kts 120°
2026-05-06 19:40 48.11162 16.56784 1417 ft 145 kts 122°
2026-05-06 19:40 48.10727 16.58157 2059 ft 150 kts 127°
2026-05-06 19:40 48.10226 16.59644 2454 ft 171 kts 128°
2026-05-06 19:40 48.09646 16.61327 2777 ft 194 kts 127°
2026-05-06 19:41 48.09007 16.63206 3228 ft 208 kts 126°
2026-05-06 19:41 48.08353 16.65175 3807 ft 214 kts 126°
2026-05-06 19:41 48.07687 16.67198 4439 ft 220 kts 125°
2026-05-06 19:41 48.06940 16.69197 4794 ft 217 kts 139°
2026-05-06 19:42 48.05779 16.70518 5430 ft 207 kts 165°
2026-05-06 19:42 48.04403 16.70893 6211 ft 199 kts 189°
2026-05-06 19:42 48.03050 16.70508 6989 ft 198 kts 197°
2026-05-06 19:42 48.01694 16.70043 7743 ft 202 kts 197°
2026-05-06 19:43 48.00314 16.69570 8497 ft 205 kts 197°
2026-05-06 19:43 47.98896 16.69082 8904 ft 211 kts 197°
2026-05-06 19:43 47.97453 16.68482 8993 ft 228 kts 208°
2026-05-06 19:43 47.96206 16.66834 9008 ft 253 kts 239°
2026-05-06 19:44 47.95803 16.64278 9011 ft 266 kts 268°
2026-05-06 19:44 47.95944 16.61509 9009 ft 269 kts 272°
2026-05-06 19:44 47.96162 16.58729 9005 ft 270 kts 273°
2026-05-06 19:44 47.96401 16.55926 9417 ft 274 kts 273°
2026-05-06 19:45 47.96641 16.53084 10223 ft 282 kts 273°
2026-05-06 19:45 47.96885 16.50054 10548 ft 305 kts 273°
2026-05-06 19:45 47.97135 16.46780 10817 ft 328 kts 273°
2026-05-06 19:45 47.97393 16.43332 11379 ft 339 kts 272°
2026-05-06 19:46 47.97655 16.39807 12091 ft 344 kts 272°
2026-05-06 19:46 47.97917 16.36230 12835 ft 349 kts 272°
2026-05-06 19:46 47.98176 16.32607 13601 ft 353 kts 273°
2026-05-06 19:46 47.98439 16.28921 14186 ft 360 kts 273°
2026-05-06 19:47 47.98704 16.25231 14817 ft 364 kts 273°
2026-05-06 19:47 47.98973 16.21456 15487 ft 367 kts 273°
2026-05-06 19:47 47.99243 16.17649 16161 ft 370 kts 272°
2026-05-06 19:47 47.99515 16.13814 16843 ft 373 kts 272°
2026-05-06 19:48 47.99793 16.09899 17493 ft 377 kts 272°
2026-05-06 19:48 48.00067 16.06041 18119 ft 380 kts 272°
2026-05-06 19:48 48.00344 16.02116 18721 ft 379 kts 272°
2026-05-06 19:48 48.00614 15.98303 19936 ft 361 kts 271°
2026-05-06 19:49 48.00875 15.94600 20781 ft 357 kts 271°
2026-05-06 19:49 48.01128 15.90906 21432 ft 358 kts 271°
2026-05-06 19:49 48.01379 15.87200 22080 ft 359 kts 271°
2026-05-06 19:49 48.01628 15.83468 22663 ft 362 kts 271°
2026-05-06 19:50 48.01877 15.79711 23237 ft 365 kts 271°
2026-05-06 19:50 48.02129 15.75918 23732 ft 368 kts 271°
2026-05-06 19:50 48.02382 15.72104 24209 ft 370 kts 271°
2026-05-06 19:50 48.02636 15.68280 24716 ft 371 kts 271°
2026-05-06 19:51 48.02892 15.64440 25206 ft 372 kts 271°
2026-05-06 19:51 48.03147 15.60585 25676 ft 373 kts 271°
2026-05-06 19:51 48.03402 15.56723 26157 ft 375 kts 271°
2026-05-06 19:51 48.03656 15.52835 26630 ft 377 kts 271°
2026-05-06 19:52 48.03910 15.48932 27103 ft 378 kts 271°
2026-05-06 19:52 48.04162 15.45016 27647 ft 379 kts 270°
2026-05-06 19:52 48.04411 15.41095 28128 ft 380 kts 270°
2026-05-06 19:52 48.04655 15.37139 28408 ft 385 kts 270°
2026-05-06 19:53 48.04817 15.33100 28540 ft 393 kts 268°
2026-05-06 19:53 48.04896 15.29010 28730 ft 398 kts 266°
2026-05-06 19:53 48.04930 15.24910 29071 ft 401 kts 266°
2026-05-06 19:53 48.04953 15.20734 29446 ft 403 kts 266°
2026-05-06 19:54 48.04984 15.16478 29737 ft 405 kts 266°
2026-05-06 19:54 48.05026 15.12286 29776 ft 414 kts 266°
2026-05-06 19:54 48.05141 15.03529 29800 ft 425 kts 266°
2026-05-06 19:55 48.05279 14.94719 29765 ft 423 kts 266°
2026-05-06 19:55 48.05398 14.85940 29762 ft 423 kts 266°
2026-05-06 19:56 48.05492 14.77160 29769 ft 422 kts 266°
2026-05-06 19:56 48.05556 14.68381 29762 ft 422 kts 266°
2026-05-06 19:57 48.04563 14.59941 29784 ft 411 kts 246°
2026-05-06 19:57 48.02401 14.52054 29794 ft 410 kts 245°
2026-05-06 19:58 48.00212 14.44212 29796 ft 408 kts 245°
2026-05-06 19:58 47.98038 14.36443 29801 ft 408 kts 245°
2026-05-06 19:59 47.95852 14.28627 29799 ft 408 kts 245°
2026-05-06 19:59 47.93660 14.20819 29801 ft 408 kts 245°
2026-05-06 20:00 47.91470 14.13018 29800 ft 408 kts 245°
2026-05-06 20:00 47.89286 14.05267 29813 ft 408 kts 245°
2026-05-06 20:01 47.87104 13.97561 29435 ft 399 kts 245°
2026-05-06 20:01 47.86034 13.93789 28877 ft 392 kts 245°
2026-05-06 20:01 47.84983 13.90087 28320 ft 385 kts 245°
2026-05-06 20:02 47.83943 13.86444 27786 ft 378 kts 244°
2026-05-06 20:02 47.82922 13.82873 27254 ft 372 kts 244°
2026-05-06 20:02 47.81915 13.79357 26729 ft 366 kts 244°
2026-05-06 20:02 47.80922 13.75890 26231 ft 361 kts 244°
2026-05-06 20:03 47.79947 13.72485 25736 ft 356 kts 244°
2026-05-06 20:03 47.78985 13.69121 25245 ft 352 kts 244°
2026-05-06 20:03 47.78030 13.65787 24759 ft 348 kts 244°
2026-05-06 20:03 47.77083 13.62492 24285 ft 345 kts 244°
2026-05-06 20:04 47.76140 13.59219 23822 ft 342 kts 244°
2026-05-06 20:04 47.75204 13.55976 23381 ft 340 kts 244°
2026-05-06 20:04 47.74275 13.52757 22832 ft 339 kts 244°
2026-05-06 20:04 47.73346 13.49550 22291 ft 337 kts 244°
2026-05-06 20:05 47.72430 13.46405 21775 ft 336 kts 244°
2026-05-06 20:05 47.71506 13.43226 21250 ft 334 kts 243°
2026-05-06 20:05 47.70588 13.40061 20738 ft 333 kts 244°
2026-05-06 20:05 47.69652 13.36841 20278 ft 332 kts 244°
2026-05-06 20:06 47.68761 13.33780 19916 ft 327 kts 244°
2026-05-06 20:06 47.67864 13.30703 19545 ft 323 kts 243°
2026-05-06 20:06 47.66979 13.27659 19178 ft 320 kts 244°
2026-05-06 20:06 47.66105 13.24653 18817 ft 316 kts 244°
2026-05-06 20:07 47.65238 13.21680 18473 ft 312 kts 244°
2026-05-06 20:07 47.64380 13.18750 18130 ft 308 kts 243°
2026-05-06 20:07 47.63525 13.15843 17738 ft 306 kts 244°
2026-05-06 20:07 47.62680 13.12970 17329 ft 303 kts 243°
2026-05-06 20:08 47.61844 13.10121 16911 ft 301 kts 244°
2026-05-06 20:08 47.61012 13.07285 16552 ft 299 kts 243°
2026-05-06 20:08 47.60181 13.04466 16124 ft 299 kts 243°
2026-05-06 20:08 47.59351 13.01657 15765 ft 296 kts 244°
2026-05-06 20:09 47.58529 12.98877 15454 ft 293 kts 244°
2026-05-06 20:09 47.57713 12.96115 15145 ft 291 kts 244°
2026-05-06 20:09 47.56905 12.93379 14751 ft 290 kts 244°
2026-05-06 20:09 47.56097 12.90648 14380 ft 289 kts 244°
2026-05-06 20:10 47.55290 12.87933 14053 ft 287 kts 244°
2026-05-06 20:10 47.54511 12.85214 13674 ft 287 kts 249°
2026-05-06 20:10 47.54103 12.82310 13359 ft 288 kts 257°
2026-05-06 20:10 47.53757 12.79438 13079 ft 286 kts 256°
2026-05-06 20:11 47.53401 12.76506 12701 ft 285 kts 257°
2026-05-06 20:11 47.53047 12.73619 12357 ft 285 kts 256°
2026-05-06 20:11 47.52691 12.70733 12040 ft 284 kts 256°
2026-05-06 20:11 47.52336 12.67855 12008 ft 285 kts 256°
2026-05-06 20:12 47.51983 12.65001 12002 ft 287 kts 257°
2026-05-06 20:12 47.51627 12.62096 12003 ft 283 kts 257°
2026-05-06 20:12 47.51287 12.59296 12010 ft 273 kts 256°
2026-05-06 20:12 47.50953 12.56558 12007 ft 270 kts 256°
2026-05-06 20:13 47.50619 12.53829 12009 ft 269 kts 256°
2026-05-06 20:13 47.50286 12.51109 12007 ft 269 kts 256°
2026-05-06 20:13 47.49953 12.48397 11874 ft 267 kts 256°
2026-05-06 20:13 47.49415 12.45808 11483 ft 263 kts 246°
2026-05-06 20:14 47.48760 12.43279 11087 ft 263 kts 245°
2026-05-06 20:14 47.48101 12.40754 10745 ft 263 kts 246°
2026-05-06 20:14 47.47441 12.38239 10412 ft 262 kts 246°
2026-05-06 20:14 47.46783 12.35734 10076 ft 261 kts 246°
2026-05-06 20:15 47.46129 12.33242 9997 ft 261 kts 246°
2026-05-06 20:15 47.45469 12.30728 10000 ft 262 kts 246°
2026-05-06 20:15 47.44807 12.28200 10008 ft 271 kts 246°
2026-05-06 20:15 47.44122 12.25588 9897 ft 272 kts 246°
2026-05-06 20:16 47.43441 12.22985 9541 ft 270 kts 246°
2026-05-06 20:16 47.42757 12.20389 9498 ft 272 kts 246°
2026-05-06 20:16 47.42075 12.17815 9500 ft 273 kts 246°
2026-05-06 20:16 47.41385 12.15206 9499 ft 273 kts 246°
2026-05-06 20:17 47.40695 12.12587 9498 ft 274 kts 246°
2026-05-06 20:17 47.40005 12.09970 9497 ft 273 kts 246°
2026-05-06 20:17 47.39314 12.07357 9502 ft 273 kts 246°
2026-05-06 20:17 47.38620 12.04740 9495 ft 273 kts 246°
2026-05-06 20:18 47.37927 12.02125 9490 ft 274 kts 246°
2026-05-06 20:18 47.37229 11.99494 9501 ft 276 kts 246°
2026-05-06 20:18 47.36526 11.96851 9490 ft 277 kts 247°
2026-05-06 20:18 47.35822 11.94202 9494 ft 277 kts 246°
2026-05-06 20:19 47.35116 11.91558 9500 ft 277 kts 246°
2026-05-06 20:19 47.34409 11.88913 9495 ft 277 kts 246°
2026-05-06 20:19 47.33704 11.86273 9489 ft 274 kts 246°
2026-05-06 20:19 47.33106 11.83693 9481 ft 260 kts 253°
2026-05-06 20:20 47.32664 11.81134 9315 ft 256 kts 252°
2026-05-06 20:20 47.32330 11.79462 9238 ft 258 kts 249°
2026-05-06 20:20 47.31776 11.76931 8827 ft 261 kts 252°
2026-05-06 20:20 47.31371 11.74315 8384 ft 262 kts 256°
2026-05-06 20:21 47.31022 11.71671 7941 ft 264 kts 257°
2026-05-06 20:21 47.30668 11.69015 7503 ft 264 kts 256°
2026-05-06 20:21 47.30314 11.66408 7075 ft 255 kts 257°
2026-05-06 20:21 47.29973 11.63905 6673 ft 244 kts 258°
2026-05-06 20:22 47.29643 11.61493 6295 ft 236 kts 256°
2026-05-06 20:22 47.29328 11.59192 5898 ft 222 kts 257°
2026-05-06 20:22 47.29035 11.57035 5531 ft 208 kts 257°
2026-05-06 20:22 47.28755 11.55012 5213 ft 198 kts 257°
2026-05-06 20:23 47.28482 11.53025 4860 ft 198 kts 257°
2026-05-06 20:23 47.28211 11.51057 4521 ft 191 kts 255°
2026-05-06 20:23 47.27959 11.49224 4234 ft 176 kts 255°
2026-05-06 20:23 47.27725 11.47531 3965 ft 162 kts 257°
2026-05-06 20:24 47.27499 11.45953 3685 ft 153 kts 258°
2026-05-06 20:24 47.27294 11.44454 3409 ft 146 kts 259°
2026-05-06 20:24 47.27097 11.43000 3178 ft 144 kts 258°
2026-05-06 20:24 47.26891 11.41568 2896 ft 142 kts 258°
2026-05-06 20:25 47.26692 11.40143 2607 ft 142 kts 257°
2026-05-06 20:25 47.26502 11.38709 2361 ft 142 kts 257°
2026-05-06 20:25 47.26339 11.37275 2172 ft 145 kts 257°
2026-05-06 20:25 47.26175 11.35815 1953 ft 144 kts 257°
2026-05-06 20:26 47.26029 11.34483 1903 ft 109 kts 261°
2026-05-06 20:26 47.25959 11.33822 1908 ft 25 kts 261°
2026-05-06 20:26 47.25911 11.33698 1907 ft 13 kts 182°
2026-05-06 20:26 47.25848 11.33802 1897 ft 15 kts 125°
2026-05-06 20:27 47.25784 11.33941 1900 ft 17 kts 117°
2026-05-06 20:27 47.25777 11.34121 1903 ft 19 kts 80°
2026-05-06 20:27 47.25796 11.34296 1901 ft 17 kts 81°
2026-05-06 20:27 47.25815 11.34479 1904 ft 19 kts 81°
2026-05-06 20:28 47.25836 11.34667 1902 ft 18 kts 81°
2026-05-06 20:28 47.25854 11.34826 1903 ft 6 kts 80°
2026-05-06 20:28 47.25839 11.34860 1896 ft 4 kts 155°
2026-05-06 20:28 47.25808 11.34871 1899 ft 2 kts 171°
2026-05-06 20:29 47.25804 11.34871 1898 ft 0 kts 171°